Theta_e
308 309 309 309 308 308 308 308 307 307 306 306 305 304 304 304 305 305 305 305 305 305 306 306 307 307 307 307 308 309 309 311 313 316 319 320 322 323 324 325 325 325 326 327 327 327 328 328 327 327 328 328 328 328 327 328 327 327 327 327 327 327 327
309 309 309 309 309 308 308 308 307 307 307 306 306 305 305 304 304 305 304 305 304 304 304 304 304 304 304 305 305 306 307 308 310 313 315 317 318 319 320 321 322 323 324 325 325 325 326 327 327 327 327 327 327 328 328 327 328 328 328 327 327 328 328
309 309 310 309 309 309 309 308 308 307 307 306 306 306 305 305 305 305 305 305 305 305 305 305 304 304 304 304 304 304 304 305 306 307 309 311 312 314 315 315 317 318 319 321 322 322 323 324 325 325 324 325 325 326 326 327 327 327 328 328 328 328 328
310 310 310 310 310 310 309 309 308 308 307 307 306 306 306 305 305 305 305 305 305 305 305 304 304 305 305 305 305 304 304 304 304 304 305 305 306 307 308 309 310 311 313 316 317 318 319 321 322 322 322 322 322 321 322 323 324 325 325 326 326 326 327
310 310 310 310 310 310 310 309 309 308 308 307 307 306 306 306 305 306 306 306 305 305 305 305 305 305 305 305 305 305 305 305 304 304 304 304 304 304 305 305 306 306 307 309 311 312 314 316 318 318 319 320 320 319 319 317 317 319 321 323 324 325 324
310 310 310 311 311 311 311 310 309 309 308 308 307 307 306 306 306 306 306 306 306 305 305 305 305 305 305 305 305 305 305 305 304 304 304 304 303 303 304 304 304 304 304 305 305 307 308 311 314 316 316 317 317 318 317 315 314 314 315 318 321 323 324
310 310 311 311 311 311 311 311 311 310 309 308 308 307 307 307 306 306 306 306 306 306 305 305 305 305 305 305 305 305 305 305 304 304 304 304 304 303 303 303 303 303 303 303 303 303 304 305 309 312 313 313 313 314 315 315 314 314 315 317 318 320 323
309 310 310 311 311 311 311 311 311 311 311 310 308 308 307 307 307 306 306 306 306 306 305 305 305 305 305 305 305 305 305 305 304 304 304 304 303 303 303 303 303 302 302 302 302 302 302 302 303 305 307 309 310 311 313 313 314 314 313 312 312 315 320
309 309 310 311 311 312 312 312 311 311 311 311 310 309 308 307 307 307 307 307 306 306 306 305 305 305 305 305 304 304 305 305 304 304 303 303 303 303 303 303 303 303 302 302 302 302 302 302 302 302 303 306 309 311 312 312 313 314 313 312 313 316 318
310 310 310 310 311 311 312 312 312 312 312 312 312 310 309 308 308 307 307 307 306 306 306 306 305 305 304 304 304 304 304 304 304 303 303 303 303 302 302 302 302 302 302 302 302 302 302 302 302 302 302 303 307 309 311 312 312 313 313 313 314 315 316
312 311 310 310 311 311 312 312 312 312 312 313 313 312 311 309 309 308 307 307 307 306 306 306 305 305 304 304 304 304 304 304 304 303 303 303 302 302 302 302 302 302 301 301 301 301 301 302 301 302 303 304 304 305 308 309 309 308 308 309 311 314 317
314 313 312 311 311 311 312 312 312 312 312 313 313 313 312 311 310 308 308 307 307 306 306 306 306 305 304 304 304 304 304 304 303 303 303 302 302 302 302 301 301 301 301 300 301 300 300 301 301 301 302 304 305 305 305 305 305 304 305 307 309 311 313
315 315 315 314 313 313 313 313 313 313 313 313 313 313 314 312 311 310 308 308 307 307 306 306 306 306 305 304 304 304 304 304 304 303 303 302 302 302 301 301 300 300 300 299 300 300 300 300 301 302 303 303 304 305 306 306 305 304 303 304 304 304 305
315 317 317 317 316 315 315 315 314 314 313 313 313 314 314 314 313 311 309 308 308 307 306 306 306 306 305 304 303 304 304 304 304 303 303 303 302 302 301 301 300 300 299 299 298 299 299 299 300 301 303 303 304 304 305 306 306 305 304 304 304 303 304
315 317 317 318 318 318 317 316 316 316 315 314 314 314 314 314 314 312 310 309 309 308 307 306 306 306 305 304 303 303 303 303 303 303 303 303 302 302 301 301 300 300 299 299 299 299 298 298 299 299 300 302 303 304 304 304 305 304 304 304 304 304 305
316 317 318 318 318 319 319 318 317 317 317 317 315 314 314 313 314 313 312 310 309 309 308 306 306 306 305 304 303 303 303 303 303 303 302 302 301 301 301 300 300 300 300 299 299 298 298 298 298 298 298 299 301 303 303 303 303 304 303 303 304 304 304
317 317 318 318 318 319 319 320 320 319 319 319 318 316 314 314 314 313 312 311 309 309 308 307 306 306 305 304 303 303 303 303 303 302 302 301 301 300 300 300 300 300 300 299 298 297 297 297 297 297 297 298 299 301 302 303 303 303 303 303 303 303 304
319 319 318 318 319 319 319 320 320 321 320 320 320 319 317 315 314 313 312 311 310 309 309 308 307 306 305 304 303 303 303 303 303 302 302 301 301 300 300 300 300 299 298 298 297 296 296 296 296 297 297 298 299 299 300 302 303 302 302 302 303 304 304
321 321 320 320 320 320 320 320 320 321 321 321 321 320 318 316 315 314 313 312 310 309 309 308 307 307 306 304 303 303 303 303 302 302 301 301 301 300 300 300 299 297 297 296 296 296 296 296 296 296 297 297 298 299 300 301 302 302 302 302 302 303 303
321 321 321 321 322 322 322 322 321 321 320 320 320 319 318 317 316 315 314 313 311 310 309 308 307 307 306 304 303 303 302 302 302 302 301 301 301 300 300 299 297 296 295 296 296 296 296 296 296 297 297 297 298 300 301 302 302 302 302 302 302 302 301
320 321 322 322 322 322 322 322 322 321 320 320 319 319 317 316 316 315 314 314 312 310 310 309 307 307 305 303 302 302 302 302 301 301 301 301 300 300 299 298 296 295 295 295 295 296 296 296 296 297 297 297 298 300 300 301 301 301 302 302 302 301 301
312 315 317 319 321 322 322 322 322 321 320 318 318 317 316 315 315 315 315 314 311 310 309 309 308 306 304 302 302 302 302 302 301 301 301 300 300 299 298 296 295 295 295 294 295 295 295 295 296 296 297 297 298 299 300 300 300 300 300 301 301 301 301
307 307 309 311 314 316 319 320 321 321 320 319 317 316 315 315 315 315 315 313 311 309 308 308 307 305 303 302 302 302 302 302 301 301 300 300 299 298 296 295 294 294 294 294 294 294 294 294 295 295 296 296 297 298 299 299 300 300 300 300 300 300 301
306 306 306 305 306 307 309 312 315 318 320 320 319 317 316 315 315 315 314 313 311 310 309 308 306 304 302 302 302 302 302 302 301 301 300 299 298 296 295 294 294 293 293 293 294 294 294 294 294 295 295 296 296 297 297 298 298 299 299 300 300 300 300
305 305 305 305 305 304 304 306 310 315 318 319 320 318 316 316 315 314 313 313 311 310 308 307 305 303 302 302 303 302 302 301 301 300 299 298 296 295 294 293 293 293 293 293 294 294 294 294 295 295 295 296 296 296 297 297 297 297 298 298 299 299 299
303 303 304 304 304 304 303 304 307 311 314 316 319 318 316 316 315 314 313 312 311 309 307 305 304 303 303 303 303 303 302 301 300 299 297 296 295 294 293 293 293 293 294 294 294 295 295 295 296 296 296 296 296 296 297 297 297 297 297 297 297 298 298
301 302 302 303 303 303 303 303 305 310 314 316 318 318 316 315 314 313 313 312 310 308 306 304 303 303 303 303 303 302 301 300 299 297 296 295 294 293 293 293 294 294 294 295 295 295 296 296 296 296 296 296 297 297 297 297 297 297 297 297 297 297 297
301 301 302 302 302 303 303 303 305 309 313 316 317 317 317 315 313 313 312 311 308 306 305 304 304 303 303 303 302 301 300 299 297 296 294 293 293 293 293 294 294 294 295 295 296 296 296 296 296 296 296 296 296 297 297 297 297 297 297 297 296 297 297
301 301 302 302 302 303 303 303 304 308 312 315 317 317 316 315 313 312 311 309 307 305 305 304 304 304 303 302 301 299 298 297 295 294 293 293 293 293 294 294 294 295 295 295 296 296 296 296 296 296 296 296 296 296 296 296 296 296 296 296 296 296 296
302 302 302 302 302 302 302 303 305 308 312 315 316 316 315 313 312 311 310 308 306 305 305 304 304 303 302 300 299 297 296 294 293 293 293 293 293 293 294 294 295 295 295 295 295 295 295 295 295 295 295 295 295 295 295 295 295 295 295 295 295 296 296
303 303 303 303 303 303 303 304 306 310 313 314 315 315 314 312 311 310 308 306 305 305 304 303 301 300 299 298 296 295 293 293 292 293 293 293 293 294 294 294 295 295 295 295 295 295 294 294 294 294 294 293 293 293 293 294 294 294 294 294 294 294 295
305 304 304 304 304 305 305 306 308 311 313 314 314 314 312 311 310 308 306 305 304 303 301 300 298 297 296 295 293 292 292 292 292 292 292 293 293 294 294 295 295 295 296 295 295 295 294 294 294 293 293 292 292 292 292 293 292 292 293 293 293 293 293
305 305 305 306 306 306 307 307 309 311 313 314 313 311 311 310 308 306 304 303 301 299 298 297 296 295 293 292 292 292 292 292 292 292 292 293 293 294 294 295 295 295 295 295 295 294 294 293 293 293 292 291 291 291 291 292 291 291 292 292 292 292 292
306 306 306 307 308 308 308 309 310 312 313 313 311 309 308 307 305 303 302 300 299 297 296 295 293 292 292 292 292 291 291 291 291 291 292 293 293 294 294 294 294 294 294 294 294 294 293 293 292 292 292 292 292 292 291 291 290 290 290 290 291 291 291
306 306 306 307 308 308 309 310 311 312 312 310 308 307 306 304 303 303 301 300 298 296 294 292 292 292 292 291 291 291 291 291 291 292 293 293 293 293 293 293 293 293 293 294 293 293 292 292 292 292 292 292 292 292 291 290 290 289 289 289 290 290 290
306 306 307 307 308 309 310 310 311 310 309 308 307 305 304 302 301 300 298 296 295 293 292 291 292 292 291 291 291 291 291 291 292 293 293 293 293 293 293 293 293 293 293 293 292 292 292 292 292 292 292 292 292 292 291 290 289 289 289 289 289 289 290
305 306 307 308 309 310 310 309 308 307 306 306 305 303 300 298 297 295 294 293 292 291 291 291 291 291 291 291 290 290 291 292 293 293 293 293 293 293 293 293 293 293 292 292 292 292 292 292 292 292 292 292 291 291 291 290 290 290 290 290 290 290 290
Wind_Speed
8 7 6 6 5 4 4 5 5 6 6 5 6 7 8 8 8 8 7 6 6 5 4 3 2 2 2 1 1 2 3 3 4 5 5 5 5 5 6 6 7 8 9 9 10 10 9 10 12 13 14 16 16 15 14 12 13 14 14 15 15 16 16
9 8 7 6 5 4 4 4 4 5 5 5 5 6 7 8 8 7 7 6 5 5 4 3 3 3 3 2 1 1 1 2 3 5 6 6 6 6 6 6 5 6 7 7 9 10 8 9 10 11 14 16 17 16 16 15 15 15 16 16 16 16 16
10 11 9 8 7 6 5 4 4 4 4 3 4 4 5 6 6 5 5 4 4 4 4 3 3 3 4 4 3 3 3 3 3 3 4 5 6 7 7 7 7 8 7 7 8 8 7 8 9 9 10 13 17 18 19 19 18 19 20 20 20 20 19
11 12 11 10 9 8 7 5 5 4 3 3 3 3 4 4 4 3 3 2 3 3 3 3 3 3 3 4 4 5 5 5 5 5 5 5 6 7 7 7 7 8 9 8 8 8 6 7 9 9 9 10 15 17 18 19 19 19 19 20 21 21 22
12 12 12 10 10 9 8 7 6 5 4 4 3 3 3 3 3 2 1 1 1 2 2 3 3 3 3 4 4 4 5 5 5 5 6 6 7 8 8 8 8 8 9 10 10 10 9 8 9 10 11 11 13 15 16 18 19 17 17 17 16 16 18
14 13 12 11 10 9 9 9 8 6 6 5 4 4 4 4 3 3 2 1 1 1 2 2 3 4 5 5 5 5 5 6 6 6 5 5 5 6 7 8 8 9 10 11 12 12 13 13 11 10 11 12 14 16 17 19 20 19 19 17 15 13 13
16 15 13 12 10 10 10 10 9 7 6 5 5 5 5 5 5 4 4 3 3 2 2 2 3 4 5 6 6 6 6 6 6 6 6 5 5 4 4 5 6 8 9 11 12 13 15 15 13 12 12 13 16 18 18 19 20 21 20 18 18 17 14
18 16 15 14 12 11 11 11 10 9 7 6 7 7 7 7 6 6 6 5 4 4 3 3 3 4 4 5 6 7 7 7 7 7 7 7 7 6 5 5 5 5 7 8 10 12 14 15 16 16 15 15 17 18 17 17 18 20 21 21 22 21 17
19 19 17 16 15 13 12 12 12 11 9 8 9 9 9 8 7 7 7 7 6 5 5 5 5 5 5 5 6 6 7 7 8 8 8 8 8 8 8 8 7 7 7 7 8 9 11 13 14 16 16 14 14 15 16 17 17 16 17 17 17 16 14
21 21 20 18 16 15 14 14 14 13 12 11 11 11 10 10 9 9 9 8 8 7 6 6 6 6 7 7 7 7 6 7 7 7 8 8 8 9 9 9 9 9 9 8 9 9 10 11 12 14 15 13 12 13 13 16 17 16 15 14 13 12 13
21 21 21 20 19 18 17 16 16 16 15 14 13 13 12 12 11 10 10 10 9 8 7 7 7 7 8 8 9 9 9 8 8 8 8 8 9 9 10 10 10 10 10 10 10 10 10 10 11 12 13 12 11 13 13 16 21 21 18 18 16 12 12
22 21 21 22 22 22 21 19 18 18 17 16 16 15 14 14 13 12 11 11 11 10 9 8 8 8 9 9 9 10 10 11 11 11 11 10 10 10 10 11 11 11 12 11 11 11 11 11 10 10 10 11 11 12 13 16 23 25 22 20 19 17 18
24 23 22 22 23 24 23 21 21 20 19 18 18 17 17 15 14 13 13 13 13 12 11 10 10 10 11 10 10 10 11 11 12 13 13 14 14 13 13 13 13 14 15 14 14 14 14 13 11 9 8 9 9 10 10 13 21 28 27 24 25 25 26
27 25 24 23 24 25 25 24 23 22 21 20 20 19 19 18 16 15 14 14 14 14 13 12 11 12 12 12 12 12 12 12 12 12 13 14 15 15 16 16 17 17 18 18 18 17 16 15 13 11 9 9 9 9 9 10 17 26 27 25 26 27 26
31 28 28 27 26 25 25 25 25 24 23 22 22 21 21 20 18 17 16 16 16 16 15 13 13 14 14 14 14 14 13 13 13 13 13 13 14 15 16 17 17 19 20 20 20 20 19 18 17 15 13 11 10 10 10 11 14 21 26 25 25 26 24
34 32 31 31 30 29 28 27 27 27 26 25 24 23 23 22 20 19 19 18 18 18 17 15 15 15 15 15 16 15 15 14 14 14 14 15 15 16 17 18 18 19 20 21 21 21 20 20 19 19 18 16 13 11 10 12 14 18 24 26 24 24 24
35 34 32 32 32 32 31 31 30 30 29 28 27 26 25 24 23 22 21 21 21 20 19 18 17 17 17 17 17 17 17 16 16 16 16 17 17 18 19 20 20 21 21 21 21 20 20 20 20 20 20 19 18 16 12 11 13 16 20 24 25 24 23
31 33 34 33 33 32 33 33 33 33 33 32 31 29 27 26 25 25 24 24 24 23 21 20 20 20 19 19 19 18 18 17 17 17 17 18 19 20 21 22 22 23 23 22 21 20 19 19 19 19 20 19 19 19 16 12 13 15 18 22 25 23 20
24 28 32 34 34 33 33 33 34 34 35 36 36 33 30 29 28 27 26 26 25 25 23 23 22 21 21 20 20 19 18 18 18 18 18 19 20 21 22 23 24 23 23 22 22 22 21 20 21 20 20 20 19 19 18 14 13 15 17 19 22 24 24
19 22 25 27 28 29 30 31 32 34 36 37 37 34 32 31 29 28 27 26 26 26 25 25 24 23 22 21 20 19 19 18 18 18 19 20 22 23 24 25 24 23 23 23 22 22 22 22 22 21 20 20 18 16 15 14 14 15 16 18 21 25 27
14 17 19 21 22 23 25 28 31 34 36 35 34 34 32 31 29 28 27 26 26 26 26 26 25 23 22 22 21 20 19 18 19 19 20 22 23 24 25 25 25 24 24 24 23 23 23 23 23 23 22 20 18 15 15 16 16 17 17 19 21 23 26
9 11 14 16 17 19 23 26 28 30 31 31 32 32 30 28 29 29 29 28 28 28 28 28 26 24 23 22 21 20 19 18 19 20 21 23 24 25 26 26 26 25 25 25 25 25 25 24 24 25 24 23 20 16 15 17 18 19 20 21 21 22 23
11 11 12 13 13 15 19 22 22 23 24 26 29 31 29 29 32 33 32 32 32 32 31 29 26 24 23 22 20 19 18 18 19 20 22 23 25 26 27 27 28 27 27 27 27 27 27 26 26 26 25 25 24 22 20 18 18 19 20 22 22 22 23
16 16 16 16 15 14 15 16 16 17 19 22 24 27 29 31 35 37 36 33 33 33 31 28 25 24 22 21 19 18 18 18 20 21 23 24 26 27 28 29 29 30 29 29 29 30 29 29 28 27 27 26 26 26 26 25 23 22 21 22 22 21 23
20 20 20 19 19 18 18 16 14 15 17 19 20 24 28 32 35 37 36 33 32 31 28 26 24 22 21 20 19 18 18 19 21 22 24 25 27 28 29 30 31 31 31 30 30 30 30 30 30 29 29 29 29 29 29 29 29 27 26 26 25 24 24
22 22 22 22 22 21 21 20 17 15 16 16 17 22 28 33 35 36 35 33 31 29 26 24 22 20 20 19 19 19 19 21 22 23 25 26 28 29 30 31 31 32 32 31 31 30 30 30 31 31 31 31 32 32 32 31 32 32 32 31 30 30 28
23 22 22 22 23 23 22 22 20 16 14 16 18 22 28 34 36 35 34 32 30 27 24 22 20 19 19 19 19 19 20 22 23 24 26 27 29 29 30 31 32 32 32 31 30 30 30 30 31 31 32 32 32 32 32 31 30 30 32 33 34 34 32
24 23 23 22 23 23 23 23 21 18 15 16 19 22 28 34 35 34 33 31 27 24 23 21 20 18 17 18 19 20 21 23 24 26 28 28 29 30 30 31 32 32 32 31 30 30 29 30 31 32 32 32 32 31 30 29 27 26 26 28 30 30 29
24 24 23 23 23 24 24 24 22 19 16 16 19 24 29 34 35 34 32 29 25 23 22 20 17 16 17 18 19 20 22 24 25 27 28 29 29 30 30 30 31 32 32 31 31 30 29 29 30 31 32 33 33 32 31 29 29 30 30 30 30 29 28
24 23 23 24 24 24 25 25 23 19 17 18 21 25 31 35 35 33 30 27 24 22 19 17 15 16 17 18 19 21 23 25 26 27 28 29 30 30 30 30 30 30 31 30 30 29 28 28 30 31 32 33 33 33 32 30 31 33 33 35 36 36 36
23 23 23 23 24 24 25 25 23 18 17 19 23 28 35 37 34 29 25 23 21 18 15 14 14 15 16 18 19 21 23 24 25 27 29 30 31 31 31 31 29 29 30 29 28 28 27 28 30 30 31 31 31 30 30 30 31 31 30 31 34 35 36
22 22 22 23 24 24 25 25 22 19 19 22 26 32 37 35 29 24 20 18 16 13 12 12 12 13 15 17 19 20 22 23 25 27 30 31 32 33 33 33 32 31 30 29 29 28 27 28 29 30 29 29 29 29 28 27 27 27 26 27 28 28 28
21 21 22 24 24 24 25 24 21 19 20 23 29 34 35 31 26 22 19 15 12 10 10 10 11 13 15 16 18 20 22 24 26 29 31 33 34 35 33 32 31 32 31 30 30 29 28 27 29 30 30 29 29 29 27 25 24 25 26 26 27 27 27
21 21 22 23 25 25 25 22 19 19 21 25 29 32 30 26 23 20 17 13 10 10 10 11 12 13 14 16 19 21 23 24 27 30 32 34 35 33 29 28 30 32 33 33 31 30 29 29 28 30 32 33 33 32 30 30 29 29 28 26 26 27 26
22 21 21 23 24 23 21 19 18 20 23 26 29 29 26 22 19 17 14 11 11 11 11 11 11 12 14 17 19 21 23 25 27 30 32 34 34 32 30 31 33 34 34 34 33 32 31 30 29 31 32 33 33 33 32 32 31 30 30 29 28 28 27
22 20 20 21 21 19 18 20 21 21 24 27 29 26 22 18 15 13 11 10 9 10 10 10 11 13 15 17 19 21 23 25 27 29 31 33 34 34 34 35 35 35 35 35 33 32 30 29 28 29 29 29 28 27 27 28 28 28 28 28 29 31 30
20 17 16 16 16 17 19 20 21 24 27 28 26 22 17 14 12 10 9 7 6 8 9 10 12 13 15 17 19 21 23 25 26 28 30 32 34 35 35 35 35 36 35 34 32 31 29 28 26 26 25 24 24 24 25 26 27 28 29 29 30 32 34
Wind_Direction
175 178 179 177 167 152 130 114 100 90 83 82 86 90 92 92 93 94 92 90 88 87 84 72 64 78 106 157 198 210 216 212 203 201 204 207 206 202 203 215 227 230 236 244 248 251 255 257 251 245 248 252 251 253 254 255 257 258 259 258 259 262 264
184 196 203 201 198 189 163 140 122 105 93 89 91 96 98 98 96 92 88 83 77 72 66 52 39 35 35 32 10 336 282 231 220 215 214 217 219 219 218 220 224 226 228 237 245 246 248 257 257 252 252 252 250 249 249 252 256 259 262 262 261 262 263
191 203 210 212 214 212 198 177 153 132 115 103 102 105 108 108 104 96 87 78 65 56 47 38 28 13 358 352 342 329 321 306 282 263 248 243 245 247 244 238 236 238 242 245 248 249 250 255 259 259 257 253 251 251 249 251 255 259 262 264 265 266 266
200 210 215 217 221 223 217 202 184 169 155 140 131 129 131 131 125 116 104 81 57 43 36 35 33 22 6 353 345 336 327 319 309 298 289 280 274 273 272 267 259 252 254 257 258 259 259 259 261 265 269 267 261 259 256 254 254 257 260 262 265 268 268
205 218 225 226 229 231 228 218 205 195 189 187 181 172 172 169 167 165 153 117 49 31 21 23 28 29 27 19 12 359 346 337 329 321 307 294 285 281 280 279 278 274 270 270 270 269 268 269 272 273 276 280 276 271 269 264 260 259 259 260 266 270 273
207 219 229 235 238 237 235 230 221 212 207 211 210 208 210 205 207 216 228 257 296 340 343 1 11 11 14 18 22 16 4 354 347 344 336 321 304 290 283 279 276 275 273 274 275 274 272 271 273 278 278 277 278 279 280 278 274 271 267 265 267 271 279
213 217 224 233 238 239 238 237 234 228 219 221 224 225 228 228 229 234 243 258 275 296 315 342 357 2 2 2 7 6 359 354 349 347 344 340 335 322 305 292 281 275 274 273 273 272 273 272 270 273 277 278 279 281 283 283 281 278 274 270 267 269 275
221 221 224 230 236 238 237 237 238 235 227 226 229 233 238 238 240 243 250 259 271 290 308 328 340 350 353 350 354 353 346 345 344 340 339 337 334 332 328 320 308 295 286 280 277 273 272 272 270 271 276 282 286 287 287 285 282 280 277 274 273 272 272
226 228 228 229 233 236 237 237 239 239 234 232 234 239 243 245 245 248 255 262 272 287 302 317 327 334 337 339 341 339 336 338 337 335 333 331 328 326 326 325 323 318 310 302 295 287 280 276 273 273 273 276 283 288 291 289 284 282 281 280 277 274 270
230 233 235 234 235 238 240 240 240 239 236 234 238 242 245 247 248 250 256 262 269 280 294 309 318 322 324 324 325 325 325 327 328 328 327 326 326 325 323 323 323 320 318 316 312 307 301 292 284 278 274 270 270 275 284 286 282 279 278 278 276 273 270
237 238 241 242 242 243 244 244 244 242 239 236 239 243 244 246 247 248 253 259 266 273 285 298 307 312 312 311 312 314 318 321 323 323 323 325 327 328 328 328 328 326 322 321 318 316 316 309 299 290 281 275 270 268 270 277 281 282 281 282 281 274 269
246 245 245 246 248 247 245 244 246 246 244 241 240 243 246 247 249 250 252 256 262 268 277 288 300 306 303 300 302 305 311 317 322 325 326 328 329 331 333 334 335 333 330 330 327 322 321 316 309 301 288 280 275 271 269 273 279 283 283 283 280 272 267
249 250 249 249 251 251 248 245 245 246 247 246 245 246 248 249 250 251 252 254 258 264 271 281 293 301 299 294 293 294 301 308 314 319 323 326 329 331 333 335 336 335 333 333 331 328 325 319 311 304 291 282 276 272 271 268 273 280 283 282 281 280 278
250 252 253 253 253 254 252 248 245 246 247 247 247 248 249 251 252 253 252 254 257 261 266 275 285 292 292 290 288 288 293 300 304 308 313 316 321 324 327 330 330 330 330 330 329 327 325 321 316 310 299 287 281 275 272 268 271 280 286 285 284 284 282
252 254 254 254 254 254 254 252 249 248 247 247 248 248 249 251 252 254 254 253 255 258 262 269 277 283 285 283 283 285 291 298 300 302 306 309 311 315 318 320 321 321 322 323 323 322 319 317 316 312 306 296 285 278 276 275 275 281 285 286 285 285 284
254 256 257 255 254 254 255 255 253 252 251 250 248 248 248 248 249 251 253 253 254 256 258 262 268 275 278 278 278 282 288 295 299 303 306 308 310 312 312 313 313 314 315 316 316 315 313 313 312 309 307 301 291 284 281 280 280 282 285 287 287 287 287
254 255 257 256 255 255 256 256 256 255 255 254 252 249 247 246 246 246 247 249 251 253 255 258 262 267 271 272 274 278 284 291 296 300 303 305 308 310 310 311 311 311 312 311 310 310 309 308 307 304 303 301 296 292 287 280 280 283 287 290 291 290 288
255 254 256 258 258 258 258 259 258 257 257 257 256 254 249 246 245 245 244 245 247 249 252 254 258 262 266 268 270 274 280 286 291 294 298 301 303 305 307 310 312 312 311 310 309 308 307 304 302 299 298 295 292 291 288 280 278 280 283 287 290 290 288
257 256 258 261 264 266 266 265 263 261 260 258 256 254 252 248 245 245 244 243 244 246 248 251 254 258 262 264 266 269 275 280 285 290 294 297 299 302 305 308 311 312 312 312 311 310 308 305 302 298 295 291 285 283 282 278 275 277 279 281 285 287 287
256 259 260 263 268 271 272 270 267 264 262 260 257 255 252 248 245 243 244 244 243 244 246 249 252 256 259 260 261 265 270 275 280 285 289 293 297 301 304 307 309 311 312 312 311 311 310 308 304 299 295 292 284 278 276 274 273 273 275 276 279 283 285
253 256 259 261 266 269 269 269 268 266 266 265 265 261 253 246 243 242 242 242 241 243 246 249 252 254 256 257 257 262 268 273 279 284 289 293 297 301 304 307 308 309 310 309 308 308 308 306 304 299 295 291 284 276 273 273 271 271 271 272 274 278 281
269 262 259 258 258 258 261 266 270 273 275 274 271 263 251 243 242 242 241 240 241 245 248 249 251 252 252 253 256 262 269 274 281 287 292 297 301 304 306 306 307 307 306 305 305 304 304 303 300 297 295 292 285 276 272 272 270 269 269 269 269 272 276
289 284 277 271 264 256 259 266 271 273 274 273 269 262 251 242 240 239 239 241 244 247 247 248 248 248 248 251 257 264 272 279 286 291 295 299 302 304 305 306 306 305 304 304 303 302 301 300 298 296 294 291 285 279 273 270 267 266 266 267 267 268 269
290 288 287 287 285 278 273 273 272 268 266 267 266 261 251 242 237 235 237 241 244 244 243 242 242 243 246 252 259 268 276 283 288 293 296 300 302 304 305 306 305 305 305 305 304 302 301 300 297 295 291 288 284 279 275 272 268 264 263 265 265 265 266
289 287 287 287 288 288 285 280 274 266 264 265 263 256 247 240 236 235 235 237 239 239 239 238 238 240 246 255 264 274 280 285 289 293 297 300 303 305 306 306 306 305 305 305 303 301 301 299 297 294 291 287 283 279 276 274 271 268 265 264 264 262 262
289 288 287 285 284 283 283 281 276 268 266 267 261 252 242 234 233 234 232 231 232 233 233 233 235 241 250 260 268 276 281 285 290 294 298 302 305 305 305 306 306 305 305 304 303 301 300 299 296 294 291 288 285 282 280 277 274 271 268 265 265 264 263
291 288 285 282 280 277 276 277 276 271 265 261 256 248 238 231 230 230 228 227 228 228 228 230 236 244 253 262 271 277 283 288 292 296 300 303 304 304 305 305 305 304 304 303 302 301 299 297 294 292 289 286 284 283 281 278 276 274 271 268 266 266 266
290 287 283 280 276 274 272 271 273 270 261 255 251 244 236 230 227 224 222 222 223 223 224 229 236 246 256 266 274 280 285 289 293 297 300 302 303 303 304 304 304 303 303 301 300 299 297 295 292 289 287 284 282 280 278 275 273 271 269 268 266 267 267
286 284 282 278 274 271 269 267 267 265 259 253 249 243 235 229 223 220 218 217 217 218 222 229 239 251 262 270 276 282 286 290 295 298 300 301 302 302 303 304 303 302 301 300 300 298 296 293 290 288 285 283 281 279 276 273 272 269 267 265 264 264 263
283 281 279 276 271 268 267 265 264 259 252 248 245 238 230 224 220 217 214 211 212 216 224 234 246 257 265 272 279 284 288 293 297 299 301 302 302 302 303 303 302 301 300 301 300 299 297 294 290 288 285 283 281 278 276 274 272 271 270 269 269 268 267
280 277 273 271 268 265 263 262 259 252 245 245 244 235 225 218 213 209 206 206 211 218 227 239 250 260 269 277 283 287 292 296 300 302 304 305 305 305 304 304 303 301 301 302 302 300 297 295 292 289 286 284 281 279 278 277 275 273 272 272 273 274 274
277 273 267 263 261 260 258 256 252 244 239 241 239 230 219 210 202 197 198 204 211 218 230 243 255 267 278 284 289 293 298 303 306 308 308 308 308 308 307 307 306 305 303 302 300 298 296 293 291 289 286 283 280 279 280 280 278 276 274 272 272 273 274
275 272 265 257 254 253 251 247 242 235 234 237 233 220 208 199 193 190 192 197 206 220 235 250 265 276 284 290 295 300 305 308 311 311 311 311 311 310 310 310 309 309 308 306 302 300 297 294 292 290 287 281 278 279 281 280 277 276 276 274 272 270 268
274 273 267 256 250 248 245 238 229 228 233 232 221 205 191 184 182 182 185 193 209 231 247 258 269 279 286 292 297 302 306 309 312 312 311 312 312 311 311 310 310 311 312 311 309 307 304 300 297 291 286 281 279 279 279 277 275 274 274 272 272 271 269
273 271 266 255 248 244 237 227 224 229 227 215 199 186 178 177 179 182 191 205 224 241 251 259 270 281 289 293 298 302 305 309 311 311 310 311 311 311 310 310 310 312 313 313 313 311 307 303 297 290 286 284 284 283 281 278 276 273 271 270 269 268 268
271 265 260 251 241 234 227 223 222 217 202 189 181 176 175 178 181 185 194 206 225 242 253 266 277 284 289 293 298 302 306 309 311 311 310 310 311 311 311 311 311 312 312 312 311 309 306 301 295 290 288 287 287 286 283 279 275 272 272 271 270 269 268
263 251 243 234 228 227 222 209 194 182 175 171 170 169 167 170 176 180 185 198 225 249 265 276 282 287 291 296 301 306 309 311 312 312 311 311 312 312 311 311 310 311 312 312 312 311 308 304 299 296 294 292 290 286 280 275 273 273 272 271 270 270 271